FW1140 Weather Reports


time (UTC)temp
F
wind
direction
speed
knots
gust
knots
rain 1hr
in
rain 24hr
in
rain mn
in
humidity
%
barometer
mb
20260510061556 37 232 6.1 7.8 0.00 0.04 0.00 69 1015.1
20260510060055 37 231 6.1 7.8 0.00 0.04 0.00 67 1015.0
20260510054551 37 231 4.3 6.1 0.00 0.04 0.00 67 1014.8
20260510053059 37 233 5.2 7.0 0.00 0.04 0.00 66 1014.8
20260510051549 38 231 6.1 7.0 0.00 0.04 0.00 64 1014.9
20260510050043 39 236 4.3 5.2 0.00 0.04 0.00 61 1014.7
20260510044539 40 236 4.3 7.0 0.00 0.04 0.04 59 1014.7
20260510043043 42 238 3.5 5.2 0.00 0.04 0.04 57 1014.6
20260510041534 43 251 3.5 4.3 0.00 0.04 0.04 54 1014.6
20260510040039 45 254 2.6 5.2 0.00 0.04 0.04 50 1014.5
20260510034530 46 271 2.6 5.2 0.00 0.04 0.04 50 1014.4
20260510033029 46 264 3.5 5.2 0.00 0.04 0.04 49 1014.3
20260510031529 46 262 2.6 4.3 0.00 0.04 0.04 49 1014.2
20260510030027 47 267 2.6 4.3 0.00 0.04 0.04 48 1014.0
20260510024525 48 271 3.5 4.3 0.00 0.04 0.04 47 1013.8
20260510023023 48 262 2.6 4.3 0.00 0.04 0.04 47 1013.6
20260510021535 49 275 1.7 4.3 0.00 0.04 0.04 45 1013.4
20260510020020 51 285 4.3 6.1 0.00 0.04 0.04 42 1013.2
20260510014522 51 321 4.3 7.0 0.00 0.04 0.04 41 1013.0
20260510013023 53 298 5.2 7.8 0.00 0.04 0.04 40 1012.8
20260510011515 54 292 5.2 9.6 0.00 0.04 0.04 38 1012.5
20260510010013 55 335 7.8 12.2 0.00 0.04 0.04 34 1012.3
20260510004514 56 302 7.8 14.8 0.00 0.04 0.04 35 1012.1
20260510003011 57 321 9.6 15.6 0.00 0.04 0.04 33 1012.0
20260510001510 57 352 8.7 16.5 0.00 0.04 0.04 33 1011.9
20260510000009 57 335 13.0 17.4 0.00 0.04 0.04 32 1011.7
20260509234507 58 314 8.7 17.4 0.00 0.04 0.04 33 1011.6
20260509233006 58 351 10.4 15.6 0.00 0.04 0.04 32 1011.4
20260509231505 58 333 11.3 19.1 0.00 0.04 0.04 32 1011.4
20260509230007 58 324 12.2 19.1 0.00 0.04 0.04 32 1011.2
20260509224506 58 280 11.3 20.9 0.00 0.04 0.04 33 1011.1
20260509223002 59 326 16.5 20.0 0.00 0.04 0.04 32 1010.9
20260509221503 59 333 13.9 17.4 0.00 0.04 0.04 32 1010.9
20260509214632 59 295 14.8 24.3 0.00 0.04 0.04 33 1010.9
20260509213102 59 325 13.9 19.1 0.00 0.04 0.04 34 1010.8
20260509211559 59 348 13.0 20.0 0.00 0.04 0.04 33 1010.8
20260509210107 59 308 12.2 24.3 0.00 0.04 0.04 34 1010.8
20260509204556 58 359 16.5 24.3 0.00 0.04 0.04 35 1010.7
20260509203105 58 359 13.0 20.0 0.00 0.04 0.04 35 1010.8
20260509201556 58 297 13.9 27.8 0.00 0.04 0.04 35 1010.8
20260509200055 58 330 12.2 20.0 0.00 0.04 0.04 35 1010.8
20260509194551 58 350 12.2 19.1 0.00 0.04 0.04 37 1010.6
20260509193055 57 338 13.9 25.2 0.00 0.04 0.04 39 1010.6
20260509191558 57 335 14.8 21.7 0.00 0.04 0.04 37 1010.6
20260509190052 57 347 15.6 22.6 0.00 0.04 0.04 38 1010.3
20260509184555 57 340 12.2 25.2 0.00 0.04 0.04 40 1010.2
20260509183050 56 351 14.8 24.3 0.00 0.04 0.04 39 1010.0
20260509181541 56 356 17.4 24.3 0.00 0.04 0.04 39 1009.9
20260509180041 56 342 15.6 21.7 0.00 0.04 0.04 39 1009.8
20260509174553 56 1 13.9 20.9 0.00 0.04 0.04 38 1009.6
20260509173039 56 338 17.4 21.7 0.00 0.04 0.04 41 1009.5
20260509171533 54 360 13.9 21.7 0.00 0.04 0.04 43 1009.4
20260509170030 54 341 13.0 21.7 0.00 0.04 0.04 44 1009.3
20260509164528 54 351 11.3 19.1 0.00 0.04 0.04 45 1009.2
20260509163033 54 341 13.0 20.0 0.00 0.04 0.04 47 1008.9
20260509161519 53 342 13.0 20.0 0.00 0.04 0.04 48 1008.7
20260509160016 53 344 14.8 19.1 0.00 0.04 0.04 50 1008.6
20260509154512 53 345 9.6 19.1 0.00 0.04 0.04 54 1008.3
20260509153009 52 336 13.0 19.1 0.00 0.04 0.04 53 1008.0
20260509151503 51 352 12.2 16.5 0.00 0.04 0.04 59 1008.0
20260509150101 51 349 12.2 18.2 0.00 0.04 0.04 64 1007.7
20260509144555 50 359 12.2 18.2 0.00 0.04 0.04 68 1007.5
20260509143050 50 360 10.4 17.4 0.00 0.04 0.04 74 1007.4
20260509141546 49 354 10.4 15.6 0.00 0.04 0.04 74 1007.2
20260509140041 49 340 11.3 14.8 0.00 0.04 0.04 75 1007.0
20260509134538 48 346 10.4 14.8 0.00 0.04 0.04 80 1006.8
20260509133036 47 350 9.6 14.8 0.00 0.04 0.04 83 1006.7
20260509131533 46 333 8.7 13.0 0.00 0.04 0.04 85 1006.5
20260509130035 45 319 11.3 14.8 0.00 0.04 0.04 86 1006.4
20260509124521 46 335 10.4 14.8 0.00 0.04 0.04 85 1006.0
20260509123019 45 332 11.3 16.5 0.00 0.04 0.04 86 1005.9
20260509121523 45 342 8.7 15.6 0.00 0.04 0.04 86 1005.8
20260509120013 45 354 9.6 15.6 0.00 0.04 0.04 86 1005.3
20260509114510 45 334 13.0 20.9 0.00 0.04 0.04 86 1004.8
20260509113007 46 350 11.3 17.4 0.00 0.04 0.04 86 1004.5
20260509111501 47 322 12.2 18.2 0.00 0.04 0.04 83 1004.2
20260509110107 48 1 10.4 14.8 0.00 0.04 0.04 83 1003.8
20260509104555 49 319 11.3 16.5 0.00 0.04 0.04 82 1003.6
20260509103101 50 308 9.6 18.2 0.00 0.04 0.04 81 1003.4
20260509101602 50 306 10.4 14.8 0.01 0.04 0.04 79 1003.2
20260509100051 50 319 7.0 12.2 0.04 0.04 0.04 79 1002.6
20260509094603 50 281 7.8 13.0 0.04 0.04 0.04 79 1002.6
20260509093050 49 262 8.7 13.0 0.04 0.04 0.04 81 1002.6
20260509091548 48 266 3.5 7.8 0.03 0.03 0.03 85 1002.8
20260509090057 48 281 2.6 5.2 0.00 0.00 0.00 83 1003.3
20260509084549 48 301 3.5 7.0 0.00 0.00 0.00 81 1003.0
20260509083053 48 319 3.5 9.6 0.00 0.00 0.00 79 1002.9
20260509081542 49 312 7.0 13.9 0.00 0.00 0.00 78 1002.8
20260509080040 50 338 9.6 16.5 0.00 0.00 0.00 76 1002.7
20260509074541 51 353 12.2 19.1 0.00 0.00 0.00 71 1002.2
20260509073035 52 354 12.2 20.0 0.00 0.00 0.00 62 1002.2
20260509071535 51 300 12.2 16.5 0.00 0.00 0.00 56 1001.6
20260509070026 50 331 11.3 16.5 0.00 0.00 0.00 55 1000.9
20260509064524 49 224 8.7 12.2 0.00 0.00 0.00 60 999.8
20260509063023 50 226 7.8 11.3 0.00 0.00 0.00 59 1000.0